[[{"header":{"parameterUnit":"m.s-1","parameterCategory":1,"la1":30.2991,"la2":30.254,"lo1":-89.0895,"lo2":-89.0444,"dy":0.0017,"dx":0.0017,"nx":28,"ny":28,"refTime":"2024-08-16T03:00:00:Z","depth":0,"parameterNumber":2,"parameterNumberName":"U-component_of_WINDS"},"data":[0,0,0,0,0,0,0,0,0,0,0,0,0,0,0,0,0,0,0,0,0,0,0,0,0,0,0,0,0,0,0,0,0,0,0,0,0,0,0,0,0,0,0,0,0,0,0,0,0,0,0,0,0,0,0,0,0,0,1.9647,1.9648,0,1.9753,1.9754,1.9755,1.9778,1.9777,1.9776,1.9776,1.9883,1.9886,1.989,0,0,0,0,0,0,0,0,0,0,0,0,0,1.946,1.9463,1.9646,1.9648,1.9649,1.9753,1.9754,1.9756,1.9778,1.9777,1.9776,1.9775,1.9882,1.9886,1.989,0,0,0,0,0,0,0,0,0,0,0,0,0,1.9551,1.9464,1.9646,1.9673,1.9676,1.9752,1.9754,1.9756,1.9778,1.9777,1.9776,1.9775,1.988,1.9885,1.9891,1.9947,0,0,1.9907,1.9909,0,0,0,0,0,0,0,0,1.9546,1.9558,1.9668,1.9671,1.9675,1.9751,1.9728,1.982,1.9779,1.9739,1.9776,1.9774,1.984,1.9848,1.9871,1.9952,1.9957,1.9908,1.9911,1.9913,1.9915,0,0,0,0,0,0,0,1.9539,1.9553,1.9688,1.9669,1.9674,1.9678,1.969,1.9745,1.9795,1.9743,1.9745,1.9757,1.9842,1.9866,1.9874,1.9958,1.9907,1.9912,1.9916,1.9918,2.0089,2.009,0,0,0,0,0,0,1.9529,1.9548,1.9685,1.9692,1.9606,1.9683,1.9696,1.9728,1.9794,1.9803,1.9758,1.9758,1.9857,1.9867,1.9877,1.9946,1.9913,1.9918,1.9921,2.0088,2.0089,2.0091,0,0,0,0,0,0,1.9525,1.9541,1.9681,1.962,1.9639,1.9687,1.9723,1.973,1.9755,1.9806,1.9814,1.9774,1.9856,1.987,1.9929,1.995,1.9921,1.9925,2.0086,2.0088,2.009,2.0085,0,0,0,0,0,0,1.9519,1.9539,1.9562,1.9621,1.9642,1.9732,1.9724,1.9733,1.9764,1.9765,1.9823,1.9831,1.9857,1.9921,1.9935,1.9957,1.993,2.0084,2.0087,2.0089,2.0083,2.0086,2.0089,0,0,0,0,0,1.9512,1.9556,1.9563,1.9579,1.9671,1.9733,1.9745,1.9774,1.9766,1.9788,1.9821,1.9829,1.9946,1.9927,1.9942,1.9967,2.0083,2.0086,2.0089,2.0082,2.0086,2.0089,0,0,0,0,0,0,1.9498,1.9565,1.9573,1.9637,1.9679,1.9737,1.9766,1.9777,1.9822,1.9821,1.9854,1.9867,1.9924,1.9952,1.9929,2.0024,2.0014,2.002,2.0003,2.0007,2.001,2.0002,1.9934,0,0,0,0,0,1.9503,1.9548,1.9604,1.9655,1.9676,1.9717,1.9745,1.9764,1.9808,1.9826,1.9863,1.9906,1.9952,1.9981,2.0027,2.0088,2.01,2.0112,2.0115,2.0117,2.0121,2.0154,2.0159,2.0101,2.0101,2.01,0,0,1.9513,1.9554,1.9581,1.9653,1.9688,1.9733,1.9732,1.978,1.9813,1.9833,1.9891,1.992,1.9969,2.0029,2.0057,2.0054,2.014,2.0121,2.0122,2.0125,2.0157,2.0163,2.0168,2.0103,2.0102,2.0102,0,0,1.9553,1.959,1.9636,1.967,1.9723,1.975,1.9761,1.9817,1.9836,1.9895,1.9911,1.995,2.003,2.0063,2.0091,2.0142,2.0151,2.0156,2.0171,2.0202,2.0206,2.021,2.0227,2.0232,2.0161,2.0161,2.0161,0,1.9558,1.9627,1.9658,1.9705,1.9735,1.9755,1.9801,1.9833,1.9898,1.9918,1.9913,2.0012,2.0047,2.0113,2.0126,2.0148,2.016,2.0149,2.0203,2.0208,2.0212,2.0228,2.0234,2.0161,2.0161,2.0161,2.0161,0,1.9629,1.9677,1.9708,1.9769,1.9803,1.9849,1.9886,1.9916,1.9932,1.9959,2.0017,2.006,2.0113,2.0131,2.0146,2.0199,2.0195,2.0197,2.0187,2.0217,2.0233,2.0239,2.0161,2.0161,2.0161,2.0161,0,0,1.9664,1.9741,1.9751,1.9779,1.9838,1.9875,1.9921,1.9973,1.9998,2.0042,2.008,2.0146,2.0147,2.0178,2.0198,2.0225,2.026,2.0223,2.0224,2.0227,2.0319,2.0317,2.0323,2.0267,2.0268,2.0269,2.0314,0,1.9709,1.9793,1.9822,1.9891,1.9934,1.9953,1.9993,2.0033,2.0059,2.0099,2.0128,2.0173,2.0172,2.0191,2.0219,2.025,2.0279,2.0247,2.0301,2.0303,2.0287,2.0332,2.033,2.037,2.0321,2.0322,2.0323,0,1.9774,1.9818,1.9891,1.9943,1.9962,1.9998,2.0047,2.0086,2.013,2.0147,2.0182,2.0199,2.0246,2.0235,2.03,2.0278,2.0302,2.032,2.0322,2.0327,2.0314,2.0336,2.0384,2.0389,2.0333,2.0332,2.0331,0,1.9789,1.9867,1.992,1.9943,2.0006,2.003,2.0057,2.0101,2.013,2.0173,2.0192,2.024,2.0265,2.0301,2.033,2.032,2.0392,2.0384,2.0406,2.0405,2.042,2.0418,2.047,2.0438,2.0437,2.0437,2.0437,0,1.9836,1.988,1.9928,1.996,2.0009,2.0041,2.0088,2.0116,2.0154,2.0192,2.0212,2.0246,2.0283,2.0322,2.0345,2.0394,2.0406,2.042,2.0425,2.0418,2.0416,2.0433,2.043,2.0439,2.0439,2.0438,2.0438,0,1.9861,1.9895,1.9954,2.0008,2.0023,2.0056,2.0102,2.0133,2.016,2.0207,2.022,2.0262,2.0309,2.0341,2.0402,2.0417,2.0469,2.0475,2.0454,2.0456,2.0476,2.0473,2.054,2.055,2.0512,2.0512,2.0513,0,1.9888,1.9922,1.9979,2.0006,2.0033,2.0076,2.0105,2.0137,2.0167,2.022,2.0244,2.0293,2.0333,2.0406,2.0441,2.0487,2.0493,2.0513,2.05,2.0491,2.0491,2.0488,2.0491,2.0515,2.0515,2.0515,2.0516,0,1.9932,1.9946,1.9989,2.0036,2.0071,2.011,2.0149,2.017,2.0208,2.0241,2.0289,2.032,2.0381,2.0428,2.0476,2.0503,2.0515,2.052,2.0527,2.0518,2.0504,2.051,2.0458,2.0518,2.0517,2.0517,2.0517,2.0517,1.9957,1.9987,2.0032,2.0078,2.0111,2.0146,2.0178,2.0209,2.025,2.0302,2.0318,2.0368,2.041,2.0477,2.0504,2.0542,2.0541,2.0552,2.0555,2.0556,2.0555,2.0499,2.0552,2.0552,2.0552,2.0552,2.0552,0,2.0,2.003,2.0072,2.0126,2.0161,2.017,2.0214,2.0242,2.0286,2.0324,2.0363,2.0417,2.0463,2.0501,2.0548,2.0571,2.0577,2.0582,2.058,2.0585,2.0555,2.0543,2.0575,2.0575,2.0575,2.0575,2.0575,2.0575,2.0027,2.0078,2.0098,2.0164,2.0194,2.0242,2.0266,2.0298,2.0329,2.0389,2.0427,2.0452,2.049,2.0539,2.058,2.0591,2.0606,2.0609,2.062,2.059,2.0588,2.0585,2.0574,2.0612,2.0612,2.0647,2.0647,2.0648]},{"header":{"parameterUnit":"m.s-1","parameterCategory":1,"la1":30.2991,"la2":30.254,"lo1":-89.0895,"lo2":-89.0444,"dy":0.0017,"dx":0.0017,"nx":28,"ny":28,"refTime":"2024-08-16T03:00:00:Z","depth":0,"parameterNumber":3,"parameterNumberName":"V-component_of_WINDS"},"data":[0,0,0,0,0,0,0,0,0,0,0,0,0,0,0,0,0,0,0,0,0,0,0,0,0,0,0,0,0,0,0,0,0,0,0,0,0,0,0,0,0,0,0,0,0,0,0,0,0,0,0,0,0,0,0,0,0,0,3.8777,3.8777,0,3.8742,3.8741,3.8741,3.866,3.8658,3.8656,3.8655,3.8619,3.8619,3.862,0,0,0,0,0,0,0,0,0,0,0,0,0,3.8773,3.8774,3.8777,3.8777,3.8776,3.8742,3.8741,3.8741,3.866,3.8658,3.8656,3.8654,3.8618,3.8619,3.862,0,0,0,0,0,0,0,0,0,0,0,0,0,3.876,3.8774,3.8777,3.8732,3.8727,3.8742,3.8741,3.8741,3.866,3.8658,3.8655,3.8653,3.8618,3.8619,3.862,3.8676,0,0,3.8623,3.8623,0,0,0,0,0,0,0,0,3.8761,3.8761,3.8739,3.8735,3.873,3.8702,3.8727,3.8719,3.8661,3.8686,3.8655,3.8652,3.8648,3.8647,3.8646,3.8674,3.8672,3.8623,3.8623,3.8624,3.8624,0,0,0,0,0,0,0,3.8762,3.8762,3.8763,3.8739,3.8733,3.8713,3.8708,3.8725,3.8682,3.8683,3.8677,3.8674,3.8646,3.8645,3.8644,3.8672,3.8623,3.8623,3.8624,3.8624,3.8741,3.8744,0,0,0,0,0,0,3.877,3.8763,3.8764,3.8762,3.874,3.8715,3.871,3.8714,3.8681,3.8674,3.8677,3.8671,3.8645,3.8643,3.8643,3.8704,3.8624,3.8624,3.8625,3.8739,3.8742,3.8745,0,0,0,0,0,0,3.877,3.8771,3.8766,3.8761,3.8759,3.8718,3.8723,3.8714,3.8714,3.8676,3.8668,3.8684,3.8643,3.8641,3.8667,3.8701,3.8625,3.8626,3.8736,3.874,3.8743,3.8828,0,0,0,0,0,0,3.877,3.8771,3.8792,3.8762,3.8759,3.8792,3.8725,3.8716,3.8715,3.8707,3.8681,3.8674,3.8641,3.8666,3.8668,3.8701,3.8626,3.8732,3.8738,3.8742,3.8822,3.8834,3.8845,0,0,0,0,0,3.877,3.8818,3.8794,3.8794,3.8785,3.8794,3.8792,3.8753,3.8719,3.8739,3.8714,3.8675,3.8698,3.867,3.8671,3.8705,3.873,3.8736,3.8742,3.8817,3.8832,3.8844,0,0,0,0,0,0,3.8854,3.8813,3.8786,3.8825,3.8814,3.878,3.8805,3.877,3.8768,3.8761,3.8712,3.8707,3.8739,3.8725,3.8694,3.8756,3.8707,3.8714,3.8764,3.8778,3.8789,3.8791,3.8627,0,0,0,0,0,3.8877,3.8888,3.8852,3.889,3.8886,3.8847,3.8849,3.882,3.8805,3.88,3.8777,3.8765,3.8769,3.8773,3.8775,3.882,3.8811,3.8843,3.8855,3.8864,3.887,3.889,3.8903,3.8764,3.8764,3.8764,0,0,3.8925,3.8904,3.8914,3.8906,3.8894,3.8905,3.8843,3.8858,3.8866,3.8802,3.8825,3.8808,3.8791,3.8826,3.884,3.8815,3.8907,3.8872,3.888,3.888,3.8897,3.8911,3.8922,3.8768,3.8767,3.8766,0,0,3.9017,3.9004,3.9033,3.9021,3.9002,3.8976,3.8983,3.8955,3.8941,3.8963,3.8914,3.8923,3.8932,3.892,3.8916,3.9003,3.8965,3.9005,3.9064,3.9084,3.9095,3.9105,3.9134,3.9145,3.9011,3.9011,3.9011,0,3.9079,3.9095,3.9052,3.907,3.9067,3.901,3.9038,3.9029,3.9012,3.9011,3.8984,3.8992,3.8976,3.9007,3.9028,3.9027,3.9032,3.9007,3.9097,3.9106,3.9115,3.9142,3.9153,3.9016,3.9015,3.9015,3.9015,0,3.917,3.9182,3.9208,3.9192,3.9192,3.9216,3.9176,3.9181,3.9152,3.9128,3.915,3.9129,3.9125,3.913,3.9102,3.9156,3.9141,3.9106,3.9056,3.9133,3.9158,3.9168,3.9023,3.9021,3.902,3.9019,0,0,3.9314,3.9274,3.9284,3.9275,3.925,3.9258,3.9278,3.9274,3.9278,3.9269,3.9283,3.9291,3.9258,3.9253,3.9223,3.9241,3.9308,3.9203,3.9202,3.9222,3.9364,3.939,3.9402,3.9284,3.9286,3.9287,3.9365,0,3.9399,3.9431,3.9393,3.9433,3.9442,3.9387,3.9404,3.939,3.9368,3.9372,3.9348,3.9353,3.931,3.9307,3.9322,3.9297,3.9336,3.9291,3.9295,3.9296,3.93,3.9415,3.9443,3.9517,3.9375,3.9376,3.9377,0,3.9503,3.9497,3.9538,3.9508,3.951,3.9527,3.9518,3.9523,3.9506,3.9488,3.9482,3.9446,3.9462,3.9415,3.9436,3.9406,3.9406,3.9393,3.9395,3.9393,3.934,3.9414,3.954,3.9551,3.9392,3.9391,3.939,0,3.9601,3.9604,3.9628,3.9622,3.9589,3.9601,3.9588,3.9568,3.9567,3.956,3.9558,3.9554,3.955,3.9547,3.951,3.9479,3.9535,3.9484,3.9519,3.952,3.9532,3.9532,3.9658,3.9535,3.9535,3.9535,3.9535,0,3.9699,3.9726,3.9671,3.9686,3.9713,3.9669,3.9697,3.9678,3.966,3.967,3.9622,3.9632,3.9583,3.9587,3.9558,3.9578,3.9578,3.9563,3.9555,3.9567,3.9568,3.9564,3.9558,3.9538,3.9537,3.9537,3.9536,0,3.9813,3.9778,3.98,3.9766,3.9758,3.978,3.9751,3.9762,3.9737,3.9749,3.975,3.971,3.9712,3.9675,3.967,3.965,3.9683,3.9666,3.9689,3.9683,3.9719,3.9715,3.9846,3.986,3.973,3.9732,3.9733,0,3.9877,3.9896,3.9864,3.9867,3.9855,3.9861,3.9859,3.9816,3.9816,3.9796,3.981,3.9808,3.9804,3.981,3.978,3.9776,3.9757,3.9803,3.9756,3.9766,3.9755,3.9754,3.9755,3.9813,3.9814,3.9816,3.9817,0,3.9994,3.9975,3.9974,3.9968,3.9967,3.996,3.9949,3.9954,3.9907,3.9909,3.991,3.9907,3.9901,3.9899,3.9889,3.9874,3.9837,3.9832,3.9839,3.9851,3.9862,3.9854,3.9714,3.9829,3.9828,3.9827,3.9826,3.9826,4.0083,4.0096,4.0075,4.0076,4.0063,4.0054,4.0063,4.0039,4.0039,4.003,4.0005,4.001,3.999,3.9972,3.9961,3.9964,3.9941,3.9952,3.9955,3.9958,3.9963,3.9863,3.9962,3.9961,3.9961,3.9961,3.996,0,4.0195,4.0179,4.018,4.0166,4.0166,4.0132,4.0118,4.012,4.0125,4.011,4.0107,4.0107,4.0105,4.0075,4.0069,4.0076,4.0059,4.0076,4.0074,4.0071,3.9985,3.9979,4.009,4.009,4.009,4.009,4.009,4.009,4.0253,4.0273,4.0252,4.0265,4.0248,4.0253,4.0248,4.0238,4.0226,4.0228,4.0226,4.0206,4.0185,4.0176,4.0172,4.0163,4.0162,4.0184,4.017,4.009,4.0077,4.0065,4.0059,4.0185,4.0185,4.0255,4.0255,4.0256]}]]